Overview Statistics Trail Chart Weather Telemetry Raw packets
 

This is the latest recevied weather packets stored in our database for station/object N1YZ. If no packets are shown the sender has not sent any weather packets the latest 10 day(s).

<< 3 4 5 6 7 8 9 >>
Time Temp. Humidity Pressure Rain* Wind** Luminosity Snow
1788629353 34.44° C 57% 1033.3 hPa 0 mm - 192 W/m² -
1788629051 34.44° C 57% 1032.9 hPa 0 mm - 203 W/m² -
1788628747 33.89° C 60% 1033.2 hPa 0 mm - 144 W/m² -
1788628444 33.89° C 58% 1033.3 hPa 0 mm - 140 W/m² -
1788628140 33.89° C 58% 1033.3 hPa 0 mm - 99 W/m² -
1788627836 33.89° C 62% 1033.6 hPa 0 mm - 100 W/m² -
1788627535 33.89° C 58% 1033.6 hPa 0 mm - 136 W/m² -
1788627230 33.33° C 61% 1033.5 hPa 0 mm - 98 W/m² -
1788626925 33.33° C 58% 1033.7 hPa 0 mm - 78 W/m² -
1788626619 33.89° C 59% 1033.9 hPa 0 mm - 72 W/m² -
1788626315 33.89° C 61% 1034 hPa 0 mm - 81 W/m² -
1788626011 33.89° C 58% 1033.8 hPa 0 mm - 187 W/m² -
1788625707 33.89° C 60% 1034 hPa 0 mm - 278 W/m² -
1788625401 33.33° C 61% 1033.8 hPa 0 mm - 73 W/m² -
1788625095 33.33° C 65% 1033.8 hPa 0 mm - 75 W/m² -
1788624795 33.33° C 62% 1034.1 hPa 0 mm - 86 W/m² -
1788624493 32.78° C 65% 1034 hPa 0 mm - 62 W/m² -
1788624222 33.33° C 62% 1034 hPa 0 mm - 66 W/m² -
1788623882 33.33° C 62% 1034.1 hPa 0 mm - 57 W/m² -
1788623581 33.33° C 65% 1034 hPa 0 mm - 59 W/m² -
1788623274 32.78° C 65% 1034.1 hPa 0 mm - 58 W/m² -
1788622971 32.78° C 65% 1033.8 hPa 0 mm - 54 W/m² -
1788622666 32.78° C 67% 1034 hPa 0 mm - 278 W/m² -
1788622362 32.78° C 66% 1033.9 hPa 0 mm - 110 W/m² -
1788622056 32.78° C 66% 1034 hPa 0 mm - 133 W/m² -

* Rain latest hour (hover to see other rain measurements)
** Current wind speed in m/s (hover to see current wind gust speed)